FENGYUN 1C DEB

Satellite information

Favourite Embed

Satellite Type and Status

DEBRISIN ORBIT

Key statistics

Satellite FENGYUN 1C DEB at a glance.

Uptime

9555

Days in orbit

Revolutions

≈ 14.1

Per day

Orbit

SSO

Sun Synchronous Orbit

Inclination

99.5

Latest

Satellite identification and parameters

Extended collection of information and parameters for FENGYUN 1C DEB.

Object identification

Identified? True

Debris? True

Object name: FENGYUN 1C DEB

International designator: 1999-025DKP

Object number (NORAD): 35111

Object ID (CCSDS): 35111

Country: PEOPLES REPUBLIC OF CHINA (PRC)

Current information (Y/N): Y

RCS size: SMALL

Orbital parameters

Period: 102.079 minutes

Inclination: 99.4793 deg

SMA: 7235.224 km

Apoapsis: 872.225 km

Periapsis: 841.954 km

RAAN: 253.2942 deg

Eccentricy: 0.0020919

Argument of periapsis: 317.9002 deg

Mean anomaly: 42.0559 deg

Mean motion: 14.10667851 rev/day

Mean motion (dot): 0.00000493 rev/day2

B* drag term: 0.00030316 1/REarth

Two-line elements (TLE)

Creation date: July 2, 2025, 5:47 p.m.

Reference frame: TEME

Reference center: EARTH

Epoch: July 2, 2025, 9:46 a.m. UTC

TLE line 0: 0 FENGYUN 1C DEB

TLE line 1: 1 35111U 99025DKP 25183.40715261 .00000493 00000-0 30316-3 0 9993

TLE line 2: 2 35111 99.4793 253.2942 0020919 317.9002 42.0559 14.10667851618418

Live tracking on map

Real-time ground track for satellite FENGYUN 1C DEB.

In-orbit conjunctions

A list of the most updated potential collisions computed for object FENGYUN 1C DEB.

Target Orbit TCA Probability of collision Miss distance Type
CZ-6A DEB LEO 2025-03-16 13:09:00 0.0001859607 147.0 (m) DEBRIS
CZ-6A DEB LEO 2025-02-17 15:41:28 0.0001459164 359.0 (m) DEBRIS
CZ-6A DEB LEO 2025-01-03 11:02:00 0.0001712017 685.0 (m) DEBRIS

Associated space launch

Chinese polar orbiting meteorological satellite

FENGYUN 1C DEB was lifted into orbit during the mission ‘Long March 4B | Feng Yun 1C’, on board a Long March 4B space rocket.

The launch took place on May 10, 1999, 1:33 a.m. from Launch Complex 7.

For more information about the launch, click the button.

Launch to space Long March 4B | Feng Yun 1C
Long March 4B | Feng Yun 1C

Agency: N/A

Status: Launch Successful

Launch date: May 10, 1999, 1:33 a.m. UTC

Rocket: Long March 4B

Launch pad: Launch Complex 7

Location: Taiyuan Satellite Launch Center, People's Republic of China

...

Latest news about this satellite

There are no fresh news available about this satellite. Check back as we update our databases every day.


Newsletter sign-up

Weekly statistics, charts and insights to help you stay on top of the space industry.